Weather in Khotisino

Russia / Kaluga Oblast     54°23′53″N   36°33′15″E
temp.,
°C
wind,
m/s
gust,
m/s
humid.,
%
clouds,
%
prec.,
mm/h
press.,
hPa
HPBL,
m
19 september, sun
sun1900:00+7e61359100 0.2 1020892
03:00+5e71585100 1.3 1019698
06:00+5e91791100 1.8 1018634
09:00+5e91793100 4.4 1017649
12:00+5e91893100 3.0 1017785
15:00+6e91794100 5.8 1016794
18:00+6e81694100 3.9 1015884
21:00+6e81695100 11.6 1013861
20 september, mon
mon2000:00+6e81595100 6.0 1013876
03:00+6e81494100 6.6 1012859
06:00+7e71394100 0.2 1011797
09:00+7e71394100 0.3 1011767
12:00+7e81393100 0.2 1012810
15:00+6e81493100 0.3 1011744
18:00+6ene81495100 2.3 1011723
21:00+5ene71495100 6.4 1011716
21 september, tue
tue2100:00+6e71395100 2.0 1011659
03:00+6ene51097100 2.5 1010482
06:00+7e3699100 0.9 1009272
09:00+8ese4893100 1.1 1010507
12:00+8ese4896100 0.4 1010510
15:00+9ese3796100 1.6 1010449
18:00+8e259699 0.8 1011190
21:00+8ene2497100 2.1 1011120
22 september, wed
wed2200:00+8ene3799100 0.6 1011283
03:00+7ne3698100 2.3 1010351
06:00+7nne4798100 5.6 1010286
09:00+6nne4797100 8.4 1011385
12:00+7nne3695100 0.7 1011552
15:00+7nne2494100 2.9 1011333
18:00+6nne2496100 0.9 1012280
21:00+6n1197100 1.2 1013116
23 september, thu
thu2300:00+6wsw1197100 0.1 101374
03:00+6sw1297100 0.1 101395
06:00+6s1297100 0.0 101394
09:00+7s3697100 0.5 1014385
12:00+8s3580100 0.4 1014825
15:00+8s5782100 0.7 1014673
18:00+6s378999 0.1 1014524
21:00+6s279098 0.1 1014355